Garden City, KS

12:23 PM CST on January 19, 2018 (GMT -0600)
Garden City Regional

Weather History for KGCK - July, 2013

Change the Weather History Date:

Saturday, July 13, 2013

  Actual Average Record
Temperature  
Mean Temperature 89 °F 78 °F  
Max Temperature 105 °F 92 °F 109 °F (1971)
Min Temperature 73 °F 65 °F 46 °F (1990)
Degree Days  
Heating Degree Days 0 0  
Month to date heating degree days 0 0  
Since 1 June heating degree days 12 16  
Since 1 July heating degree days 0 0  
Cooling Degree Days 24 13  
Month to date cooling degree days 218 166  
Year to date cooling degree days 756 507  
Since 1 June cooling degree days 609 418  
Growing Degree Days 38 (Base 50)    
Moisture  
Dew Point 54 °F    
Average Humidity 39    
Maximum Humidity 61    
Minimum Humidity 16    
Precipitation  
Precipitation 0.00 in 0.08 in 1.23 in (1993)
Month to date precipitation 0.01 1.20  
Year to date precipitation 3.72 11.62  
Sea Level Pressure  
Sea Level Pressure 29.83 in    
Wind  
Wind Speed 13 mph (South)    
Max Wind Speed 25 mph    
Max Gust Speed 31 mph    
Visibility 10 miles    
Events      
T = Trace of Precipitation, MM = Missing Value Source: NWS Daily Summary

Daily Weather History Graph

Daily Weather History Graph

Search for Another Location

Airport or City:

Trip Planner

Search our weather history database for the weather conditions in past years. The results will help you decide how hot, cold, wet, or windy it might be!

Date:

Astronomy

Jul. 13, 2013 Rise Set
Actual Time 6:31 AM CDT 9:05 PM CDT
Civil Twilight 6:00 AM CDT 9:36 PM CDT
Nautical Twilight 5:22 AM CDT 10:14 PM CDT
Astronomical Twilight 4:40 AM CDT 10:56 PM CDT
Moon 11:43 AM CDT (7/13) 11:54 PM CDT (7/13)
Length of Visible Light 15h 35m
Length of Day
14h 34m
Waxing Crescent, 26% of the Moon is Illuminated
Jul 13
Waxing Crescent
Jul 15
First Quarter
Jul 22
Full
Jul 29
Last Quarter
Aug 6
New

Hourly Weather History & Observations

Time (CDT) Temp. Heat Index Dew Point Humidity Pressure Visibility Wind Dir Wind Speed Gust Speed Precip Events Conditions
12:54 AM 82.9 °F 82.4 °F 57.0 °F 41% 29.84 in 10.0 mi SSE 15.0 mph - N/A   Clear
1:54 AM 81.0 °F 81.1 °F 57.9 °F 45% 29.86 in 10.0 mi SSE 13.8 mph - N/A   Clear
2:54 AM 78.1 °F - 59.0 °F 52% 29.86 in 10.0 mi SSE 15.0 mph - N/A   Clear
3:54 AM 75.9 °F - 59.0 °F 56% 29.85 in 10.0 mi SSE 10.4 mph - N/A   Clear
4:54 AM 75.0 °F - 59.0 °F 57% 29.86 in 10.0 mi SSE 9.2 mph - N/A   Clear
5:54 AM 73.9 °F - 59.0 °F 59% 29.86 in 10.0 mi SE 9.2 mph - N/A   Clear
6:54 AM 73.0 °F - 59.0 °F 61% 29.87 in 10.0 mi SSE 6.9 mph - N/A   Clear
7:54 AM 77.0 °F - 57.9 °F 52% 29.88 in 10.0 mi South 6.9 mph - N/A   Clear
8:54 AM 82.9 °F 82.4 °F 57.0 °F 41% 29.88 in 10.0 mi South 11.5 mph - N/A   Clear
9:54 AM 89.1 °F 87.1 °F 55.0 °F 31% 29.87 in 10.0 mi SSW 17.3 mph - N/A   Clear
10:54 AM 95.0 °F 92.5 °F 53.1 °F 24% 29.86 in 10.0 mi SSW 19.6 mph - N/A   Clear
11:54 AM 98.1 °F - 52.0 °F 21% 29.85 in 10.0 mi SW 18.4 mph - N/A   Clear
12:54 PM 100.9 °F - 51.1 °F 19% 29.84 in 10.0 mi SW 17.3 mph 24.2 mph N/A   Clear
1:54 PM 102.0 °F - 50.0 °F 17% 29.82 in 10.0 mi SSW 21.9 mph 27.6 mph N/A   Clear
2:54 PM 102.9 °F - 50.0 °F 17% 29.81 in 10.0 mi South 16.1 mph 24.2 mph N/A   Partly Cloudy
3:54 PM 102.0 °F - 48.9 °F 17% 29.80 in 10.0 mi South 13.8 mph 31.1 mph N/A   Clear
4:54 PM 104.0 °F - 50.0 °F 16% 29.78 in 10.0 mi South 9.2 mph 28.8 mph N/A   Clear
5:54 PM 104.0 °F - 50.0 °F 16% 29.78 in 10.0 mi South 21.9 mph 27.6 mph N/A   Clear
6:54 PM 102.0 °F - 48.0 °F 16% 29.76 in 10.0 mi South 15.0 mph - N/A   Clear
7:54 PM 99.0 °F - 48.9 °F 18% 29.76 in 10.0 mi South 11.5 mph - N/A   Clear
8:54 PM 93.0 °F - 51.1 °F 24% 29.78 in 10.0 mi South 5.8 mph - N/A   Clear
9:54 PM 87.1 °F - 52.0 °F 30% 29.79 in 10.0 mi SSE 6.9 mph - N/A   Clear
10:54 PM 84.0 °F - 51.1 °F 32% 29.81 in 10.0 mi SSE 6.9 mph - N/A   Clear
11:54 PM 81.0 °F - 50.0 °F 34% 29.81 in 10.0 mi SSE 8.1 mph - N/A   Clear